W7YP Weather Reports


time (UTC)temp
C
wind
direction
speed
KPH
gust
KPH
rain 1hr
cm
rain 24hr
cm
rain mn
cm
humidity
%
barometer
mb
20260508083018 7 324 0.0 3.2 0.00 0.23 0.00 95 1015.1
20260508082736 7 323 0.0 3.2 0.00 0.25 0.00 95 1015.1
20260508082010 7 324 0.0 0.0 0.00 0.30 0.00 95 1015.1
20260508081455 7 324 0.0 0.0 0.00 0.36 0.00 95 1015.1
20260508080953 7 324 0.0 0.0 0.00 0.36 0.00 95 1015.0
20260508080709 7 324 0.0 0.0 0.00 0.38 0.00 95 1015.1
20260508075936 7 324 0.0 0.0 0.00 0.41 0.00 95 1015.0
20260508075431 7 324 0.0 0.0 0.00 0.41 0.00 95 1015.0
20260508074931 7 324 0.0 0.0 0.00 0.41 0.00 95 1015.0
20260508074431 7 324 0.0 0.0 0.00 0.46 0.00 95 1015.0
20260508073931 7 324 0.0 0.0 0.00 0.48 0.00 95 1015.0
20260508073644 7 324 0.0 0.0 0.00 0.51 0.00 95 1015.0
20260508072924 7 324 0.0 0.0 0.00 0.51 0.00 95 1014.9
20260508072422 7 324 0.0 0.0 0.00 0.58 0.00 94 1015.0
20260508071916 7 324 0.0 0.0 0.00 0.71 0.00 94 1015.0
20260508071407 7 324 0.0 0.0 0.00 0.89 0.00 94 1015.0
20260508070847 7 324 0.0 0.0 0.00 0.89 0.00 94 1014.9
20260508070337 7 324 0.0 0.0 0.00 0.89 0.00 94 1014.9
20260508065837 7 324 0.0 0.0 0.00 0.89 0.00 94 1014.9
20260508065321 7 324 0.0 0.0 0.00 0.89 0.00 94 1014.9
20260508064819 8 324 0.0 0.0 0.00 0.89 0.00 94 1014.8
20260508064316 8 324 0.0 0.0 0.00 0.89 0.00 94 1014.8
20260508063817 8 324 0.0 0.0 0.00 0.89 0.00 93 1014.9
20260508063312 8 324 0.0 0.0 0.00 0.89 0.00 94 1014.7
20260508062810 8 324 0.0 0.0 0.00 0.89 0.00 93 1014.8
20260508062306 8 324 0.0 0.0 0.00 0.89 0.00 94 1014.9
20260508062246 8 324 0.0 0.0 0.00 0.89 0.00 93 1014.8
20260508061247 8 324 0.0 0.0 0.00 0.89 0.00 93 1014.7
20260508060743 8 324 0.0 0.0 0.00 0.89 0.00 93 1014.7
20260508060244 8 324 0.0 3.2 0.00 0.89 0.00 93 1014.6
20260508055743 8 324 0.0 3.2 0.00 0.89 0.89 93 1014.7
20260508055228 8 324 0.0 3.2 0.00 0.89 0.89 93 1014.7
20260508054728 8 324 0.0 4.8 0.00 0.89 0.89 93 1014.7
20260508054226 8 324 1.6 4.8 0.00 0.89 0.89 93 1014.5
20260508053932 8 329 0.0 0.0 0.00 0.89 0.89 93 1014.6
20260508053643 8 329 0.0 3.2 0.00 0.89 0.89 92 1014.6
20260508052924 8 329 1.6 3.2 0.00 0.89 0.89 92 1014.5
20260508052201 8 329 0.0 1.6 0.00 0.89 0.89 92 1014.5
20260508051646 8 329 0.0 4.8 0.00 0.89 0.89 92 1014.5
20260508051145 8 329 3.2 4.8 0.00 0.89 0.89 92 1014.6
20260508050643 8 329 0.0 4.8 0.00 0.89 0.89 92 1014.5
20260508050144 8 329 0.0 4.8 0.00 0.89 0.89 91 1014.5
20260508045644 9 329 0.0 0.0 0.00 0.89 0.89 91 1014.4
20260508045147 9 329 0.0 0.0 0.00 0.89 0.89 91 1014.1
20260508044629 9 329 0.0 0.0 0.00 0.89 0.89 91 1014.1
20260508044129 9 329 0.0 0.0 0.00 0.89 0.89 91 1014.0
20260508043630 9 329 0.0 1.6 0.00 0.89 0.89 90 1014.0
20260508043349 9 329 0.0 1.6 0.00 0.89 0.89 90 1014.0
20260508042613 10 329 0.0 0.0 0.00 0.91 0.89 90 1014.0
20260508042329 10 329 0.0 0.0 0.00 0.94 0.89 90 1013.9
20260508041609 10 329 0.0 0.0 0.00 0.94 0.89 90 1013.9
20260508041106 10 329 0.0 0.0 0.00 0.94 0.89 90 1013.8
20260508040605 10 329 0.0 0.0 0.00 0.94 0.89 90 1014.0
20260508040106 10 329 0.0 0.0 0.00 0.94 0.89 89 1013.9
20260508035601 10 329 0.0 0.0 0.00 0.94 0.89 89 1013.9
20260508035314 10 329 0.0 1.6 0.00 0.94 0.89 89 1013.9
20260508034550 10 329 0.0 1.6 0.00 0.94 0.89 89 1013.9
20260508034050 10 329 0.0 0.0 0.00 0.94 0.89 88 1013.8
20260508033543 10 329 0.0 0.0 0.00 0.94 0.89 88 1013.8
20260508033041 10 329 0.0 0.0 0.00 0.94 0.89 88 1013.7
20260508032759 10 329 0.0 0.0 0.00 0.94 0.89 87 1013.6
20260508032037 11 329 0.0 0.0 0.00 0.94 0.89 86 1013.6
20260508031536 11 329 0.0 3.2 0.00 0.94 0.89 86 1013.6
20260508031026 11 329 0.0 4.8 0.00 0.94 0.89 85 1013.5
20260508030527 11 329 0.0 4.8 0.00 0.94 0.89 84 1013.4
20260508030011 12 329 0.0 3.2 0.00 0.94 0.89 82 1013.4
20260508025511 12 329 0.0 0.0 0.00 0.94 0.89 81 1013.4
20260508025007 12 329 0.0 0.0 0.00 0.94 0.89 80 1013.4
20260508024502 12 329 0.0 0.0 0.00 0.94 0.89 80 1013.3
20260508023957 13 329 0.0 0.0 0.00 0.94 0.89 79 1013.1
20260508023452 13 329 0.0 0.0 0.00 0.94 0.89 78 1013.1
20260508022952 13 329 0.0 0.0 0.00 0.94 0.89 76 1013.1
20260508022447 14 329 0.0 1.6 0.00 0.94 0.89 74 1013.1
20260508021947 15 329 0.0 1.6 0.00 0.94 0.89 72 1013.0
20260508021929 15 329 0.0 0.0 0.00 0.94 0.89 69 1013.0
20260508020938 16 329 0.0 0.0 0.00 0.94 0.89 68 1013.0
20260508020438 16 329 0.0 0.0 0.00 0.94 0.89 67 1013.0
20260508015938 16 329 0.0 1.6 0.00 0.94 0.89 64 1013.0
20260508015922 17 329 0.0 1.6 0.00 0.94 0.89 64 1012.9
20260508014923 17 329 0.0 1.6 0.00 0.94 0.89 59 1012.9
20260508014426 17 331 0.0 4.8 0.00 0.94 0.89 60 1013.0
20260508013921 17 331 0.0 4.8 0.00 0.94 0.89 58 1013.0
20260508013416 17 163 0.0 4.8 0.00 0.94 0.89 56 1012.8
20260508012911 17 291 0.0 4.8 0.00 0.94 0.89 57 1012.9
20260508012406 17 290 0.0 4.8 0.00 0.94 0.89 57 1012.8
20260508011905 17 277 0.0 4.8 0.00 0.94 0.89 58 1012.8
20260508011405 17 277 1.6 4.8 0.00 0.94 0.89 57 1012.8
20260508010904 17 306 0.0 8.0 0.00 0.94 0.89 59 1012.8
20260508010405 17 307 3.2 8.0 0.00 0.94 0.89 58 1012.9
20260508005855 17 174 0.0 11.3 0.00 0.94 0.89 57 1012.8
20260508005350 17 211 1.6 11.3 0.00 0.94 0.89 56 1012.8
20260508004845 17 205 1.6 16.1 0.00 0.94 0.89 56 1012.9
20260508004348 17 349 3.2 16.1 0.00 0.94 0.89 54 1012.9
20260508003840 18 344 1.6 14.5 0.00 0.94 0.89 54 1012.8
20260508003341 18 5 0.0 14.5 0.00 0.94 0.89 55 1012.9
20260508002840 18 9 1.6 14.5 0.00 0.94 0.89 55 1013.0
20260508002340 18 298 3.2 14.5 0.00 0.94 0.89 56 1013.0
20260508001830 18 281 3.2 14.5 0.00 0.94 0.89 55 1013.0
20260508001325 18 242 1.6 12.9 0.00 0.94 0.89 56 1013.0
20260508000825 18 11 1.6 12.9 0.00 0.94 0.89 56 1013.0
20260508000324 18 313 1.6 16.1 0.00 0.94 0.89 55 1013.1
20260507235820 18 236 3.2 17.7 0.00 0.94 0.89 55 1012.9
20260507235311 18 25 3.2 17.7 0.00 0.94 0.89 53 1013.1
20260507234811 18 352 3.2 12.9 0.00 0.94 0.89 53 1013.1
20260507234312 18 327 3.2 17.7 0.00 0.94 0.89 53 1013.0
20260507233812 18 352 1.6 17.7 0.00 0.94 0.89 52 1013.1
20260507233306 18 237 3.2 9.7 0.00 0.94 0.89 51 1013.0
20260507232801 18 334 0.0 12.9 0.00 0.94 0.89 52 1013.1
20260507232301 18 55 3.2 12.9 0.00 0.94 0.89 51 1013.1
20260507232020 18 352 1.6 16.1 0.00 0.94 0.89 51 1013.3
20260507231528 18 32 6.4 17.7 0.00 0.94 0.89 49 1013.0
20260507230802 18 288 3.2 17.7 0.00 0.94 0.89 51 1013.1
20260507230605 19 0 0.0 11.3 0.00 0.94 0.89 51 1013.3
20260507230504 19 182 3.2 12.9 0.00 0.94 0.89 49 1013.4
20260507225741 19 180 1.6 12.9 0.00 0.94 0.89 50 1013.5
20260507224753 19 294 3.2 12.9 0.00 0.94 0.89 52 1013.5
20260507224253 19 238 1.6 16.1 0.00 0.94 0.89 47 1013.5
20260507223753 19 223 3.2 16.1 0.00 0.94 0.89 49 1013.6
20260507223248 19 306 1.6 8.0 0.00 0.94 0.89 51 1013.6
20260507222739 18 323 1.6 4.8 0.00 0.94 0.89 52 1013.5
20260507222228 18 313 0.0 14.5 0.00 0.94 0.89 52 1013.6
20260507221728 18 167 1.6 14.5 0.00 0.94 0.89 52 1013.7
20260507221232 18 148 3.2 19.3 0.00 0.94 0.89 52 1013.8
20260507220729 18 98 4.8 19.3 0.00 0.94 0.89 55 1013.7
20260507220230 18 352 0.0 11.3 0.00 0.94 0.89 54 1013.8
20260507215725 18 182 3.2 9.7 0.00 0.94 0.89 55 1013.7
20260507215224 18 12 1.6 8.0 0.00 0.94 0.89 57 1013.8
20260507214725 18 316 1.6 8.0 0.00 0.94 0.89 58 1013.9
20260507214225 18 332 0.0 9.7 0.00 0.94 0.89 58 1014.0
20260507213725 18 283 3.2 16.1 0.00 0.94 0.89 56 1014.1
20260507213228 18 187 4.8 20.9 0.00 0.94 0.89 54 1014.1
20260507212724 18 166 4.8 20.9 0.00 0.94 0.89 54 1014.3
20260507212220 18 234 3.2 12.9 0.00 0.94 0.89 58 1014.3
20260507211721 18 331 3.2 14.5 0.00 0.94 0.89 58 1014.1
20260507211221 18 288 3.2 14.5 0.00 0.94 0.89 61 1014.1
20260507210721 18 62 3.2 14.5 0.00 0.94 0.89 60 1014.1
20260507210656 18 209 3.2 12.9 0.00 0.94 0.89 61 1014.3
20260507205712 18 248 0.0 12.9 0.00 0.94 0.89 63 1014.4
20260507205211 18 179 1.6 9.7 0.00 0.94 0.89 59 1014.3
20260507204711 18 313 1.6 14.5 0.00 0.94 0.89 60 1014.4
20260507204207 18 91 3.2 14.5 0.00 0.94 0.89 59 1014.4
20260507203707 18 56 1.6 17.7 0.00 0.94 0.89 59 1014.5
20260507203207 18 180 3.2 17.7 0.00 0.94 0.89 60 1014.4
20260507202707 18 98 0.0 8.0 0.00 0.94 0.89 64 1014.6
20260507202653 18 325 1.6 9.7 0.00 0.94 0.89 62 1014.6
20260507201702 17 335 1.6 9.7 0.00 0.94 0.89 64 1014.6
20260507201157 17 225 0.0 8.0 0.00 0.94 0.89 68 1014.5
20260507200657 17 102 0.0 9.7 0.00 0.94 0.89 66 1014.6
20260507200153 17 230 1.6 8.0 0.00 0.94 0.89 67 1014.6
20260507195653 16 122 0.0 9.7 0.00 0.94 0.89 67 1014.6
20260507195153 16 209 4.8 9.7 0.00 0.94 0.89 68 1014.8
20260507194654 16 229 0.0 8.0 0.00 0.94 0.89 71 1014.7
20260507194412 16 337 1.6 4.8 0.00 0.94 0.89 71 1014.7
20260507193648 16 40 0.0 4.8 0.00 0.94 0.89 73 1014.8
20260507193149 16 36 0.0 4.8 0.00 0.94 0.89 74 1014.8
20260507192857 16 111 0.0 4.8 0.00 0.94 0.89 75 1014.8
20260507192139 15 88 0.0 8.0 0.00 0.94 0.89 78 1014.9
20260507191642 15 86 0.0 9.7 0.00 0.94 0.89 78 1014.9
20260507191401 15 109 1.6 9.7 0.00 0.94 0.89 81 1014.9
20260507190634 15 113 0.0 6.4 0.00 0.94 0.89 80 1015.0
20260507190129 15 211 1.6 6.4 0.00 0.94 0.89 79 1014.9
20260507185625 15 148 0.0 8.0 0.00 0.94 0.89 81 1015.1
20260507185125 15 203 1.6 8.0 0.00 0.94 0.89 81 1015.1
20260507184626 14 150 1.6 4.8 0.00 0.94 0.89 81 1015.3
20260507184353 14 205 0.0 4.8 0.00 0.94 0.89 83 1015.3
20260507183620 14 95 0.0 4.8 0.00 0.94 0.89 87 1015.3
20260507183116 13 101 0.0 9.7 0.00 0.94 0.89 87 1015.3
20260507182615 13 99 1.6 9.7 0.00 0.94 0.89 86 1015.4
20260507182116 13 116 0.0 4.8 0.00 0.94 0.89 88 1015.4
20260507181616 13 116 0.0 1.6 0.00 0.94 0.89 88 1015.4
20260507181116 13 117 0.0 0.0 0.00 0.94 0.89 89 1015.4
20260507180616 13 117 0.0 1.6 0.00 0.94 0.89 88 1015.5
20260507180112 13 117 0.0 1.6 0.00 0.94 0.89 88 1015.4
20260507175607 12 115 0.0 3.2 0.00 0.94 0.89 89 1015.4
20260507175553 12 115 0.0 3.2 0.00 0.94 0.89 88 1015.4
20260507174602 12 116 0.0 3.2 0.00 0.94 0.89 89 1015.3
20260507174102 12 116 0.0 4.8 0.00 0.94 0.89 89 1015.3
20260507173552 12 150 1.6 6.4 0.00 0.94 0.89 88 1015.4
20260507173055 12 163 0.0 6.4 0.00 0.94 0.89 88 1015.4
20260507172553 12 71 0.0 1.6 0.00 0.94 0.89 91 1015.3
20260507172048 12 70 0.0 6.4 0.00 0.94 0.89 92 1015.3
20260507171547 12 70 1.6 11.3 0.00 0.94 0.89 92 1015.4
20260507171306 12 133 0.0 11.3 0.00 0.94 0.89 94 1015.4
20260507170537 12 108 1.6 9.7 0.00 0.94 0.89 95 1015.4
20260507170303 11 58 0.0 3.2 0.00 0.94 0.89 96 1015.4
20260507165536 11 17 0.0 4.8 0.00 0.94 0.89 96 1015.5
20260507165030 11 139 0.0 4.8 0.00 0.94 0.89 97 1015.6
20260507164524 11 207 1.6 6.4 0.00 0.94 0.89 97 1015.6
20260507164024 11 69 1.6 9.7 0.00 0.94 0.89 98 1015.7
20260507163524 11 126 1.6 9.7 0.00 0.94 0.89 98 1015.7
20260507163024 11 117 0.0 3.2 0.00 0.94 0.89 98 1015.7
20260507162524 10 103 0.0 4.8 0.00 0.94 0.89 98 1015.7
20260507162025 10 104 1.6 4.8 0.00 0.94 0.89 98 1015.8
20260507161519 10 299 0.0 3.2 0.00 0.94 0.89 98 1015.8
20260507161240 10 299 0.0 1.6 0.00 0.94 0.89 98 1015.8
20260507160520 10 299 0.0 0.0 0.00 0.94 0.89 98 1015.8
20260507160015 10 299 0.0 0.0 0.00 0.94 0.89 98 1015.9
20260507155515 9 299 0.0 1.6 0.00 0.94 0.89 98 1015.9
20260507155016 9 299 0.0 3.2 0.00 0.94 0.89 98 1015.8
20260507154506 9 299 0.0 4.8 0.00 0.94 0.89 98 1015.7
20260507154006 9 299 0.0 4.8 0.03 0.94 0.89 98 1015.8
20260507153508 9 299 0.0 3.2 0.08 0.94 0.89 98 1015.7
20260507153231 9 299 0.0 0.0 0.13 0.94 0.89 97 1015.6
20260507152934 8 299 0.0 0.0 0.15 0.94 0.89 97 1015.6
20260507151941 8 299 0.0 1.6 0.15 0.94 0.89 97 1015.6
20260507151438 8 299 0.0 1.6 0.18 0.94 0.89 97 1015.6
20260507151410 8 299 0.0 0.0 0.18 0.94 0.89 97 1015.6
20260507150653 8 299 0.0 0.0 0.20 0.94 0.89 97 1015.5
20260507145916 8 299 0.0 1.6 0.20 0.94 0.89 97 1015.5
20260507145419 8 299 0.0 1.6 0.20 0.94 0.89 97 1015.5
20260507144912 8 299 0.0 0.0 0.20 0.94 0.89 97 1015.4
20260507144409 8 299 0.0 0.0 0.20 0.94 0.89 97 1015.5
20260507143856 8 299 0.0 0.0 0.15 0.89 0.86 97 1015.3
20260507143354 8 299 0.0 0.0 0.10 0.84 0.81 97 1015.3
20260507142852 8 299 0.0 0.0 0.08 0.81 0.76 97 1015.3
20260507142353 8 299 0.0 0.0 0.05 0.79 0.74 97 1015.4
20260507141852 8 299 0.0 0.0 0.05 0.79 0.74 97 1015.3
20260507141351 8 299 0.0 0.0 0.03 0.76 0.71 97 1015.3
20260507140842 8 299 0.0 0.0 0.03 0.76 0.71 97 1015.3
20260507140613 8 299 0.0 0.0 0.00 0.74 0.69 97 1015.1
20260507135843 8 299 0.0 0.0 0.00 0.74 0.69 97 1015.0
20260507135344 8 299 0.0 0.0 0.00 0.74 0.69 97 1014.9
20260507134838 8 299 0.0 0.0 0.00 0.74 0.69 97 1014.9
20260507134336 7 299 0.0 0.0 0.00 0.74 0.69 97 1014.9
20260507133828 7 299 0.0 0.0 0.00 0.74 0.69 97 1014.9
20260507133325 7 299 0.0 0.0 0.00 0.74 0.69 97 1014.8
20260507132813 7 299 0.0 0.0 0.00 0.74 0.69 97 1014.7
20260507132316 7 299 0.0 0.0 0.00 0.74 0.69 96 1014.7
20260507131816 7 299 0.0 0.0 0.00 0.74 0.69 96 1014.7
20260507131321 7 299 0.0 0.0 0.00 0.74 0.69 96 1014.7
20260507130809 7 299 0.0 0.0 0.00 0.74 0.69 96 1014.6
20260507130304 7 299 0.0 0.0 0.00 0.74 0.69 96 1014.4
20260507125759 7 299 0.0 0.0 0.00 0.74 0.69 96 1014.4
20260507125249 7 299 0.0 0.0 0.00 0.74 0.69 96 1014.4
20260507124748 7 299 0.0 0.0 0.00 0.74 0.69 96 1014.4
20260507124239 7 299 0.0 0.0 0.00 0.74 0.69 96 1014.3
20260507123740 7 299 0.0 0.0 0.00 0.74 0.69 96 1014.3
20260507123500 7 299 0.0 0.0 0.00 0.74 0.69 96 1014.3
20260507123224 7 299 0.0 0.0 0.00 0.74 0.69 96 1014.4
20260507122240 7 299 0.0 0.0 0.00 0.74 0.69 96 1014.3
20260507121741 7 299 0.0 0.0 0.00 0.74 0.69 96 1014.1
20260507121505 7 299 0.0 0.0 0.00 0.74 0.69 96 1014.1
20260507120728 7 299 0.0 0.0 0.00 0.74 0.69 96 1014.0
20260507120213 7 299 0.0 0.0 0.00 0.74 0.69 96 1014.0
20260507115711 7 299 0.0 0.0 0.00 0.74 0.69 96 1014.0
20260507115210 7 299 0.0 0.0 0.00 0.74 0.69 95 1013.9
20260507114710 7 299 0.0 0.0 0.00 0.74 0.69 95 1013.9
20260507114211 7 299 0.0 0.0 0.00 0.74 0.69 95 1014.0
20260507113937 7 299 0.0 0.0 0.00 0.74 0.69 95 1014.0
20260507113206 7 299 0.0 0.0 0.00 0.74 0.69 95 1013.9
20260507112702 7 299 0.0 0.0 0.00 0.74 0.69 95 1013.9
20260507112146 7 299 0.0 0.0 0.00 0.74 0.69 95 1013.9
20260507111644 7 299 0.0 0.0 0.00 0.74 0.69 95 1013.9
20260507111136 7 299 0.0 0.0 0.00 0.74 0.69 95 1013.9
20260507110637 7 299 0.0 0.0 0.00 0.74 0.69 95 1013.7
20260507110140 7 299 0.0 0.0 0.00 0.74 0.69 94 1013.8
20260507105637 7 299 0.0 0.0 0.00 0.74 0.69 94 1013.8
20260507105122 7 299 0.0 0.0 0.00 0.74 0.69 94 1013.8
20260507104836 7 299 0.0 0.0 0.00 0.74 0.69 94 1013.7
20260507104120 7 299 0.0 0.0 0.00 0.74 0.69 93 1013.6
20260507103611 7 299 0.0 0.0 0.00 0.74 0.69 94 1013.6
20260507103108 7 299 0.0 0.0 0.00 0.74 0.69 94 1013.6
20260507102607 7 299 0.0 0.0 0.00 0.74 0.69 94 1013.6
20260507102110 8 299 0.0 0.0 0.00 0.74 0.69 94 1013.6
20260507101806 8 299 0.0 0.0 0.00 0.74 0.69 94 1013.6
20260507101048 8 299 0.0 0.0 0.00 0.74 0.69 95 1013.7
20260507100549 8 299 0.0 0.0 0.00 0.74 0.69 95 1013.7
20260507100043 8 299 0.0 0.0 0.00 0.74 0.69 95 1013.7
20260507095538 8 299 0.0 0.0 0.00 0.74 0.69 94 1013.8
20260507095033 8 299 0.0 0.0 0.00 0.74 0.69 95 1013.8
20260507094532 8 299 0.0 0.0 0.00 0.74 0.69 95 1013.8
20260507094028 8 299 0.0 0.0 0.00 0.74 0.69 95 1013.8
20260507093515 8 299 0.0 0.0 0.00 0.74 0.69 94 1013.8
20260507093014 8 299 0.0 0.0 0.03 0.74 0.69 94 1013.8
20260507092813 8 299 0.0 0.0 0.10 0.74 0.69 95 1013.8
20260507092510 8 299 0.0 0.0 0.05 0.74 0.69 95 1013.8
20260507092445 8 299 0.0 0.0 0.13 0.74 0.69 95 1013.7
20260507091004 8 299 0.0 0.0 0.15 0.74 0.69 95 1013.6
20260507090500 8 299 0.0 0.0 0.18 0.74 0.69 95 1013.8
20260507090000 8 299 0.0 3.2 0.18 0.74 0.69 94 1013.6
20260507085455 9 299 0.0 3.2 0.20 0.74 0.69 94 1014.1
20260507084953 9 299 0.0 0.0 0.20 0.74 0.69 94 1014.4
20260507084656 9 299 0.0 0.0 0.25 0.74 0.69 94 1014.3
20260507083938 9 299 0.0 1.6 0.28 0.74 0.69 94 1014.1
20260507083652 9 299 0.0 3.2 0.30 0.74 0.69 94 1014.1